QPF
0.00 0.00 0.00 0.00 0.01 0.01 0.01 0.02 0.02 0.02 0.03 0.04 0.03 0.02 0.02 0.02 0.05 0.06 0.06 0.05 0.03 0.04 0.04 0.04 0.04 0.04 0.05 0.06 0.07 0.07 0.08 0.09 0.10 0.07 0.05 0.03 0.03 0.03 0.03 0.02 0.02 0.01 0.01
0.00 0.00 0.00 0.00 0.00 0.01 0.01 0.01 0.02 0.02 0.03 0.02 0.02 0.01 0.02 0.02 0.03 0.03 0.04 0.05 0.05 0.05 0.05 0.05 0.04 0.04 0.05 0.05 0.06 0.08 0.08 0.08 0.07 0.06 0.04 0.02 0.03 0.02 0.02 0.02 0.02 0.02 0.02
0.00 0.00 0.00 0.00 0.00 0.00 0.00 0.01 0.02 0.02 0.01 0.01 0.01 0.01 0.02 0.02 0.04 0.05 0.06 0.07 0.07 0.08 0.09 0.09 0.07 0.06 0.05 0.04 0.04 0.03 0.03 0.02 0.03 0.02 0.03 0.03 0.03 0.03 0.02 0.03 0.03 0.03 0.02
0.00 0.00 0.00 0.00 0.00 0.00 0.01 0.02 0.01 0.01 0.01 0.01 0.00 0.01 0.01 0.01 0.02 0.04 0.07 0.08 0.08 0.09 0.07 0.05 0.04 0.03 0.03 0.03 0.04 0.04 0.04 0.03 0.03 0.02 0.02 0.03 0.03 0.02 0.02 0.04 0.05 0.04 0.03
0.01 0.01 0.00 0.00 0.00 0.01 0.02 0.02 0.01 0.01 0.01 0.00 0.00 0.00 0.01 0.01 0.02 0.02 0.03 0.03 0.03 0.03 0.02 0.02 0.02 0.01 0.02 0.02 0.03 0.04 0.04 0.02 0.02 0.02 0.02 0.02 0.02 0.02 0.02 0.02 0.04 0.05 0.03
0.01 0.01 0.00 0.00 0.01 0.02 0.03 0.02 0.01 0.01 0.01 0.00 0.00 0.00 0.01 0.01 0.01 0.01 0.01 0.02 0.02 0.02 0.02 0.02 0.02 0.02 0.02 0.02 0.01 0.01 0.02 0.02 0.02 0.02 0.02 0.02 0.02 0.02 0.02 0.01 0.03 0.03 0.03
0.01 0.01 0.01 0.01 0.01 0.01 0.02 0.02 0.02 0.02 0.01 0.01 0.01 0.01 0.02 0.02 0.01 0.01 0.01 0.01 0.01 0.01 0.02 0.02 0.01 0.01 0.01 0.01 0.01 0.01 0.01 0.01 0.01 0.02 0.02 0.03 0.03 0.02 0.01 0.02 0.04 0.02 0.03
0.01 0.01 0.01 0.01 0.01 0.02 0.03 0.04 0.03 0.03 0.02 0.02 0.01 0.01 0.02 0.02 0.02 0.02 0.01 0.00 0.01 0.01 0.01 0.01 0.01 0.01 0.01 0.01 0.02 0.01 0.01 0.01 0.01 0.01 0.01 0.03 0.02 0.02 0.02 0.02 0.03 0.01 0.01
0.01 0.02 0.02 0.02 0.02 0.03 0.03 0.03 0.03 0.03 0.03 0.02 0.02 0.01 0.01 0.01 0.02 0.01 0.01 0.01 0.01 0.01 0.01 0.01 0.01 0.01 0.01 0.01 0.01 0.01 0.02 0.01 0.01 0.01 0.00 0.01 0.01 0.01 0.01 0.02 0.02 0.01 0.02
0.02 0.03 0.03 0.03 0.03 0.03 0.04 0.05 0.04 0.05 0.04 0.03 0.03 0.02 0.02 0.01 0.02 0.01 0.01 0.01 0.01 0.01 0.01 0.01 0.01 0.01 0.02 0.02 0.01 0.01 0.01 0.01 0.01 0.01 0.01 0.01 0.01 0.01 0.01 0.01 0.01 0.01 0.01
0.03 0.03 0.03 0.03 0.04 0.04 0.04 0.05 0.05 0.04 0.04 0.04 0.03 0.03 0.02 0.02 0.02 0.01 0.02 0.01 0.01 0.01 0.01 0.01 0.00 0.01 0.01 0.01 0.01 0.01 0.01 0.01 0.01 0.02 0.03 0.01 0.00 0.00 0.00 0.00 0.01 0.01 0.01
0.03 0.02 0.02 0.02 0.03 0.03 0.04 0.03 0.03 0.03 0.02 0.03 0.04 0.03 0.02 0.02 0.02 0.02 0.02 0.02 0.02 0.01 0.01 0.01 0.01 0.01 0.01 0.01 0.01 0.01 0.01 0.02 0.01 0.01 0.01 0.01 0.01 0.00 0.00 0.01 0.01 0.01 0.01
0.03 0.03 0.03 0.03 0.03 0.03 0.03 0.03 0.02 0.02 0.01 0.02 0.03 0.04 0.03 0.03 0.02 0.02 0.01 0.02 0.03 0.01 0.01 0.02 0.01 0.02 0.02 0.02 0.01 0.01 0.02 0.02 0.01 0.01 0.01 0.01 0.01 0.01 0.01 0.01 0.01 0.01 0.01
0.04 0.04 0.04 0.03 0.04 0.05 0.04 0.04 0.03 0.03 0.02 0.02 0.01 0.01 0.01 0.02 0.03 0.02 0.02 0.02 0.02 0.01 0.01 0.01 0.01 0.01 0.00 0.00 0.01 0.01 0.01 0.01 0.01 0.01 0.01 0.01 0.01 0.01 0.01 0.01 0.01 0.01 0.01
0.04 0.05 0.05 0.05 0.04 0.04 0.04 0.04 0.06 0.06 0.04 0.03 0.02 0.02 0.01 0.01 0.02 0.02 0.02 0.02 0.02 0.02 0.02 0.01 0.01 0.01 0.01 0.00 0.00 0.01 0.01 0.01 0.01 0.01 0.00 0.00 0.01 0.01 0.01 0.01 0.01 0.01 0.01
0.04 0.05 0.05 0.04 0.03 0.03 0.03 0.03 0.04 0.06 0.05 0.03 0.03 0.03 0.03 0.04 0.04 0.03 0.02 0.02 0.02 0.02 0.02 0.01 0.01 0.01 0.01 0.01 0.01 0.01 0.01 0.01 0.01 0.01 0.00 0.01 0.00 0.01 0.01 0.01 0.01 0.01 0.01
0.03 0.03 0.03 0.02 0.02 0.02 0.02 0.02 0.02 0.03 0.04 0.05 0.04 0.04 0.04 0.04 0.06 0.07 0.06 0.03 0.02 0.02 0.02 0.01 0.01 0.01 0.02 0.02 0.02 0.02 0.02 0.02 0.02 0.01 0.01 0.01 0.01 0.01 0.01 0.01 0.01 0.01 0.01
0.02 0.02 0.02 0.02 0.02 0.02 0.03 0.03 0.03 0.03 0.04 0.03 0.04 0.04 0.03 0.04 0.05 0.04 0.05 0.04 0.03 0.02 0.02 0.02 0.02 0.02 0.02 0.02 0.02 0.02 0.02 0.01 0.01 0.01 0.01 0.01 0.01 0.01 0.01 0.01 0.01 0.01 0.01
0.04 0.05 0.04 0.03 0.03 0.03 0.03 0.04 0.04 0.03 0.04 0.04 0.04 0.05 0.05 0.05 0.06 0.05 0.04 0.03 0.03 0.02 0.03 0.02 0.02 0.02 0.02 0.02 0.02 0.02 0.02 0.01 0.01 0.01 0.01 0.01 0.01 0.01 0.01 0.01 0.01 0.01 0.01
0.04 0.05 0.06 0.04 0.04 0.04 0.04 0.04 0.04 0.04 0.03 0.03 0.04 0.04 0.05 0.05 0.04 0.04 0.03 0.03 0.03 0.03 0.03 0.03 0.04 0.04 0.04 0.04 0.03 0.03 0.02 0.02 0.02 0.02 0.02 0.02 0.02 0.01 0.01 0.01 0.01 0.01 0.01
0.04 0.05 0.05 0.04 0.03 0.04 0.04 0.04 0.03 0.03 0.03 0.03 0.03 0.04 0.06 0.06 0.05 0.05 0.04 0.03 0.03 0.03 0.03 0.03 0.03 0.04 0.04 0.04 0.04 0.03 0.02 0.02 0.02 0.02 0.03 0.03 0.03 0.03 0.02 0.01 0.01 0.01 0.01
0.05 0.07 0.06 0.04 0.04 0.04 0.04 0.03 0.02 0.03 0.03 0.03 0.03 0.04 0.05 0.05 0.04 0.04 0.04 0.04 0.03 0.03 0.03 0.03 0.03 0.03 0.03 0.03 0.03 0.02 0.02 0.02 0.02 0.03 0.04 0.04 0.04 0.04 0.03 0.02 0.02 0.02 0.02
0.04 0.07 0.08 0.06 0.05 0.04 0.04 0.04 0.03 0.03 0.02 0.03 0.03 0.04 0.04 0.04 0.05 0.05 0.05 0.04 0.03 0.04 0.04 0.03 0.03 0.03 0.03 0.04 0.04 0.03 0.03 0.03 0.02 0.03 0.03 0.04 0.04 0.03 0.03 0.03 0.03 0.02 0.02
0.04 0.05 0.06 0.06 0.06 0.05 0.04 0.04 0.04 0.03 0.03 0.03 0.03 0.04 0.04 0.05 0.07 0.08 0.07 0.05 0.05 0.05 0.05 0.05 0.05 0.05 0.04 0.05 0.04 0.04 0.04 0.03 0.03 0.02 0.03 0.03 0.03 0.03 0.03 0.03 0.03 0.03 0.03
0.03 0.03 0.03 0.03 0.04 0.03 0.03 0.03 0.04 0.04 0.03 0.03 0.03 0.03 0.05 0.05 0.06 0.07 0.08 0.09 0.09 0.10 0.10 0.09 0.08 0.07 0.06 0.04 0.04 0.04 0.04 0.04 0.04 0.04 0.04 0.03 0.03 0.02 0.03 0.03 0.03 0.03 0.03
0.02 0.02 0.02 0.03 0.03 0.03 0.03 0.04 0.05 0.05 0.04 0.04 0.03 0.04 0.06 0.07 0.07 0.07 0.07 0.08 0.09 0.09 0.09 0.08 0.07 0.06 0.05 0.04 0.03 0.03 0.03 0.02 0.02 0.02 0.02 0.02 0.02 0.02 0.02 0.03 0.03 0.03 0.02
MSLP
1014.83 1015.19 1015.54 1015.86 1016.11 1016.28 1016.38 1016.43 1016.44 1016.44 1016.47 1016.52 1016.62 1016.74 1016.88 1017.01 1017.11 1017.18 1017.20 1017.19 1017.16 1017.13 1017.14 1017.20 1017.31 1017.47 1017.67 1017.87 1018.04 1018.14 1018.14 1018.03 1017.78 1017.41 1016.94 1016.39 1015.81 1015.23 1014.68 1014.20 1013.80 1013.50 1013.30
1014.30 1014.68 1015.03 1015.35 1015.61 1015.79 1015.91 1015.97 1016.00 1016.03 1016.06 1016.12 1016.21 1016.32 1016.45 1016.56 1016.65 1016.69 1016.69 1016.65 1016.59 1016.53 1016.49 1016.50 1016.57 1016.70 1016.87 1017.07 1017.26 1017.40 1017.47 1017.43 1017.28 1017.01 1016.62 1016.15 1015.62 1015.07 1014.54 1014.05 1013.62 1013.28 1013.02
1013.79 1014.18 1014.54 1014.85 1015.11 1015.30 1015.43 1015.51 1015.56 1015.59 1015.64 1015.70 1015.79 1015.89 1016.00 1016.10 1016.16 1016.18 1016.16 1016.10 1016.01 1015.92 1015.85 1015.82 1015.85 1015.93 1016.07 1016.25 1016.43 1016.59 1016.70 1016.73 1016.65 1016.47 1016.18 1015.80 1015.35 1014.87 1014.38 1013.91 1013.48 1013.11 1012.82
1013.27 1013.67 1014.03 1014.34 1014.60 1014.79 1014.93 1015.02 1015.09 1015.14 1015.20 1015.27 1015.35 1015.44 1015.53 1015.61 1015.65 1015.65 1015.61 1015.53 1015.42 1015.31 1015.22 1015.16 1015.15 1015.19 1015.30 1015.44 1015.61 1015.77 1015.90 1015.96 1015.95 1015.84 1015.64 1015.35 1015.00 1014.59 1014.17 1013.74 1013.33 1012.96 1012.64
1012.74 1013.16 1013.52 1013.82 1014.07 1014.26 1014.41 1014.51 1014.59 1014.66 1014.74 1014.81 1014.89 1014.97 1015.04 1015.09 1015.11 1015.08 1015.02 1014.93 1014.82 1014.69 1014.59 1014.51 1014.48 1014.50 1014.57 1014.69 1014.83 1014.97 1015.09 1015.18 1015.20 1015.14 1015.02 1014.81 1014.54 1014.22 1013.86 1013.49 1013.12 1012.76 1012.43
1012.24 1012.66 1013.02 1013.31 1013.55 1013.74 1013.88 1014.00 1014.10 1014.19 1014.28 1014.36 1014.43 1014.50 1014.54 1014.56 1014.55 1014.50 1014.42 1014.32 1014.20 1014.08 1013.97 1013.89 1013.85 1013.85 1013.89 1013.98 1014.08 1014.19 1014.29 1014.37 1014.40 1014.38 1014.29 1014.15 1013.95 1013.70 1013.42 1013.10 1012.78 1012.44 1012.11
1011.80 1012.22 1012.57 1012.86 1013.08 1013.26 1013.41 1013.54 1013.66 1013.76 1013.86 1013.94 1014.00 1014.05 1014.06 1014.05 1014.00 1013.93 1013.83 1013.71 1013.59 1013.47 1013.37 1013.30 1013.25 1013.24 1013.26 1013.30 1013.37 1013.43 1013.49 1013.53 1013.54 1013.52 1013.45 1013.34 1013.19 1013.00 1012.78 1012.52 1012.24 1011.94 1011.63
1011.48 1011.91 1012.25 1012.52 1012.73 1012.91 1013.06 1013.19 1013.31 1013.42 1013.52 1013.60 1013.65 1013.67 1013.66 1013.60 1013.52 1013.42 1013.30 1013.17 1013.04 1012.93 1012.83 1012.76 1012.70 1012.67 1012.66 1012.66 1012.67 1012.68 1012.68 1012.66 1012.63 1012.57 1012.49 1012.39 1012.26 1012.11 1011.93 1011.73 1011.50 1011.24 1010.96
1011.35 1011.77 1012.10 1012.35 1012.56 1012.72 1012.86 1012.99 1013.12 1013.22 1013.32 1013.38 1013.42 1013.41 1013.36 1013.27 1013.16 1013.02 1012.87 1012.73 1012.60 1012.48 1012.38 1012.29 1012.22 1012.16 1012.11 1012.05 1011.99 1011.92 1011.85 1011.76 1011.66 1011.55 1011.44 1011.32 1011.19 1011.05 1010.90 1010.74 1010.56 1010.36 1010.13
1011.41 1011.82 1012.14 1012.38 1012.56 1012.71 1012.84 1012.96 1013.07 1013.16 1013.24 1013.29 1013.30 1013.26 1013.19 1013.07 1012.93 1012.77 1012.60 1012.44 1012.29 1012.15 1012.03 1011.92 1011.82 1011.71 1011.60 1011.47 1011.33 1011.18 1011.01 1010.84 1010.66 1010.49 1010.32 1010.17 1010.03 1009.89 1009.77 1009.64 1009.50 1009.35 1009.18
1011.64 1012.03 1012.33 1012.55 1012.71 1012.84 1012.95 1013.04 1013.13 1013.21 1013.26 1013.29 1013.27 1013.22 1013.12 1012.99 1012.83 1012.66 1012.47 1012.29 1012.12 1011.96 1011.80 1011.65 1011.49 1011.32 1011.13 1010.92 1010.69 1010.44 1010.18 1009.92 1009.66 1009.42 1009.20 1009.01 1008.85 1008.71 1008.59 1008.49 1008.40 1008.30 1008.20
1011.96 1012.33 1012.60 1012.80 1012.94 1013.03 1013.11 1013.17 1013.23 1013.27 1013.30 1013.31 1013.28 1013.21 1013.11 1012.98 1012.82 1012.64 1012.45 1012.26 1012.06 1011.87 1011.66 1011.45 1011.22 1010.97 1010.69 1010.38 1010.06 1009.72 1009.37 1009.03 1008.70 1008.39 1008.13 1007.90 1007.71 1007.56 1007.45 1007.37 1007.31 1007.26 1007.22
1012.26 1012.60 1012.85 1013.01 1013.11 1013.18 1013.21 1013.24 1013.26 1013.27 1013.28 1013.26 1013.23 1013.17 1013.08 1012.96 1012.81 1012.65 1012.46 1012.26 1012.05 1011.81 1011.55 1011.27 1010.96 1010.61 1010.24 1009.84 1009.42 1009.00 1008.58 1008.17 1007.78 1007.43 1007.12 1006.86 1006.65 1006.49 1006.38 1006.32 1006.28 1006.27 1006.28
1012.46 1012.76 1012.96 1013.09 1013.16 1013.18 1013.18 1013.16 1013.14 1013.13 1013.11 1013.09 1013.05 1013.01 1012.94 1012.85 1012.74 1012.60 1012.42 1012.22 1011.98 1011.71 1011.39 1011.03 1010.64 1010.21 1009.74 1009.26 1008.77 1008.27 1007.79 1007.33 1006.91 1006.53 1006.19 1005.91 1005.69 1005.52 1005.40 1005.33 1005.31 1005.32 1005.36
1012.48 1012.73 1012.90 1012.98 1013.01 1013.00 1012.95 1012.90 1012.85 1012.80 1012.77 1012.74 1012.72 1012.70 1012.66 1012.61 1012.53 1012.42 1012.26 1012.06 1011.80 1011.48 1011.11 1010.68 1010.21 1009.69 1009.15 1008.60 1008.05 1007.51 1007.00 1006.52 1006.08 1005.68 1005.33 1005.04 1004.79 1004.60 1004.47 1004.39 1004.36 1004.37 1004.42
1012.31 1012.52 1012.64 1012.70 1012.69 1012.63 1012.56 1012.47 1012.39 1012.33 1012.28 1012.26 1012.25 1012.25 1012.25 1012.23 1012.18 1012.09 1011.94 1011.73 1011.44 1011.09 1010.66 1010.16 1009.62 1009.05 1008.45 1007.86 1007.27 1006.71 1006.19 1005.71 1005.27 1004.87 1004.52 1004.21 1003.94 1003.72 1003.56 1003.44 1003.38 1003.38 1003.42
1012.01 1012.17 1012.26 1012.29 1012.25 1012.18 1012.08 1011.97 1011.87 1011.79 1011.74 1011.71 1011.71 1011.72 1011.74 1011.74 1011.70 1011.62 1011.47 1011.24 1010.92 1010.52 1010.04 1009.50 1008.90 1008.28 1007.65 1007.04 1006.44 1005.89 1005.38 1004.91 1004.48 1004.09 1003.73 1003.40 1003.10 1002.84 1002.63 1002.46 1002.35 1002.31 1002.32
1011.64 1011.78 1011.85 1011.86 1011.81 1011.73 1011.62 1011.50 1011.39 1011.30 1011.24 1011.20 1011.20 1011.21 1011.22 1011.22 1011.17 1011.07 1010.89 1010.63 1010.27 1009.83 1009.30 1008.72 1008.09 1007.45 1006.81 1006.20 1005.62 1005.09 1004.60 1004.16 1003.75 1003.36 1002.99 1002.63 1002.29 1001.97 1001.68 1001.44 1001.26 1001.16 1001.13
1011.29 1011.42 1011.49 1011.50 1011.46 1011.38 1011.28 1011.16 1011.04 1010.94 1010.87 1010.82 1010.80 1010.78 1010.77 1010.73 1010.65 1010.51 1010.29 1009.98 1009.57 1009.08 1008.52 1007.91 1007.26 1006.62 1005.99 1005.40 1004.86 1004.37 1003.92 1003.50 1003.10 1002.71 1002.32 1001.92 1001.51 1001.12 1000.74 1000.41 1000.15 999.96 999.87
1011.00 1011.14 1011.23 1011.26 1011.25 1011.19 1011.10 1010.99 1010.88 1010.78 1010.68 1010.61 1010.55 1010.50 1010.44 1010.34 1010.21 1010.00 1009.72 1009.35 1008.90 1008.37 1007.78 1007.15 1006.51 1005.88 1005.28 1004.73 1004.23 1003.78 1003.37 1002.97 1002.58 1002.18 1001.75 1001.30 1000.82 1000.33 999.86 999.43 999.06 998.79 998.62
1010.77 1010.94 1011.06 1011.13 1011.16 1011.14 1011.07 1010.98 1010.88 1010.77 1010.66 1010.55 1010.45 1010.35 1010.22 1010.06 1009.86 1009.59 1009.24 1008.82 1008.32 1007.76 1007.15 1006.52 1005.90 1005.30 1004.74 1004.23 1003.78 1003.36 1002.98 1002.60 1002.20 1001.78 1001.30 1000.78 1000.22 999.64 999.07 998.53 998.06 997.70 997.45
1010.56 1010.77 1010.94 1011.06 1011.13 1011.15 1011.12 1011.05 1010.96 1010.85 1010.72 1010.58 1010.44 1010.28 1010.09 1009.87 1009.60 1009.26 1008.86 1008.39 1007.86 1007.28 1006.68 1006.06 1005.46 1004.90 1004.38 1003.91 1003.49 1003.10 1002.73 1002.35 1001.94 1001.48 1000.95 1000.37 999.73 999.06 998.39 997.76 997.20 996.74 996.41
1010.30 1010.56 1010.78 1010.95 1011.07 1011.13 1011.14 1011.09 1011.01 1010.90 1010.76 1010.60 1010.42 1010.22 1009.98 1009.71 1009.39 1009.01 1008.57 1008.07 1007.53 1006.95 1006.36 1005.76 1005.19 1004.66 1004.17 1003.72 1003.32 1002.94 1002.55 1002.15 1001.71 1001.20 1000.62 999.97 999.27 998.53 997.79 997.08 996.45 995.91 995.52
1009.95 1010.26 1010.52 1010.74 1010.89 1010.99 1011.03 1011.01 1010.94 1010.84 1010.70 1010.53 1010.33 1010.10 1009.84 1009.54 1009.19 1008.79 1008.34 1007.84 1007.30 1006.74 1006.16 1005.59 1005.03 1004.51 1004.03 1003.58 1003.16 1002.75 1002.33 1001.88 1001.38 1000.82 1000.18 999.48 998.73 997.95 997.17 996.42 995.74 995.17 994.73
1009.50 1009.84 1010.14 1010.38 1010.57 1010.70 1010.76 1010.77 1010.72 1010.63 1010.50 1010.34 1010.14 1009.91 1009.64 1009.34 1008.99 1008.60 1008.15 1007.67 1007.14 1006.59 1006.03 1005.47 1004.91 1004.38 1003.87 1003.37 1002.89 1002.41 1001.92 1001.39 1000.81 1000.18 999.49 998.75 997.97 997.18 996.39 995.66 994.99 994.42 993.97
1008.98 1009.34 1009.66 1009.92 1010.13 1010.28 1010.36 1010.39 1010.37 1010.30 1010.19 1010.04 1009.86 1009.65 1009.41 1009.12 1008.79 1008.42 1008.00 1007.53 1007.03 1006.49 1005.92 1005.34 1004.75 1004.17 1003.58 1003.00 1002.41 1001.81 1001.20 1000.55 999.87 999.16 998.41 997.64 996.86 996.08 995.34 994.65 994.04 993.52 993.11
Thickness
5792 5789 5787 5784 5781 5778 5775 5772 5769 5766 5763 5761 5759 5757 5755 5753 5752 5750 5749 5747 5745 5742 5740 5738 5735 5733 5732 5731 5729 5725 5722 5718 5710 5707 5705 5701 5697 5694 5692 5690 5687 5684 5680
5793 5789 5786 5784 5781 5777 5774 5771 5768 5764 5762 5760 5758 5756 5754 5752 5750 5748 5746 5745 5742 5739 5737 5735 5733 5731 5728 5727 5725 5722 5719 5715 5710 5702 5700 5697 5693 5691 5688 5686 5685 5682 5678
5795 5790 5786 5783 5779 5776 5773 5770 5767 5764 5761 5758 5756 5754 5752 5750 5748 5746 5744 5742 5740 5737 5735 5733 5730 5728 5724 5723 5720 5719 5716 5713 5708 5702 5698 5694 5691 5688 5684 5682 5680 5677 5675
5794 5790 5785 5782 5778 5776 5773 5769 5766 5763 5760 5757 5755 5752 5751 5749 5747 5744 5742 5739 5737 5734 5732 5730 5728 5725 5722 5719 5717 5714 5711 5708 5704 5701 5695 5691 5687 5684 5681 5678 5675 5673 5672
5792 5788 5784 5782 5778 5775 5771 5768 5765 5762 5760 5757 5754 5751 5749 5748 5746 5743 5740 5738 5734 5731 5729 5727 5725 5721 5718 5715 5714 5711 5708 5705 5702 5697 5692 5688 5684 5679 5678 5676 5672 5669 5667
5790 5787 5784 5780 5777 5773 5770 5767 5763 5760 5757 5755 5752 5750 5748 5747 5741 5737 5736 5735 5731 5728 5725 5722 5720 5717 5712 5708 5706 5703 5701 5700 5697 5693 5689 5684 5680 5678 5675 5672 5669 5666 5662
5787 5785 5781 5778 5774 5772 5769 5765 5761 5757 5754 5751 5750 5747 5745 5741 5736 5733 5730 5730 5728 5725 5722 5719 5718 5714 5709 5706 5701 5698 5695 5692 5690 5688 5685 5681 5677 5674 5670 5667 5664 5661 5658
5783 5782 5779 5775 5772 5770 5766 5762 5759 5756 5752 5749 5747 5745 5741 5738 5732 5728 5726 5726 5725 5721 5719 5716 5712 5709 5707 5702 5699 5696 5693 5690 5686 5683 5681 5677 5675 5671 5667 5664 5660 5656 5654
5780 5778 5776 5773 5769 5766 5762 5759 5757 5753 5749 5747 5745 5742 5739 5734 5728 5725 5722 5723 5720 5717 5715 5712 5709 5705 5698 5695 5694 5691 5688 5684 5680 5676 5673 5670 5667 5663 5661 5659 5656 5653 5650
5776 5775 5773 5770 5766 5763 5760 5756 5754 5751 5747 5744 5741 5739 5736 5732 5725 5721 5717 5722 5718 5715 5711 5708 5702 5699 5694 5690 5689 5686 5682 5679 5676 5672 5667 5664 5661 5658 5654 5652 5652 5649 5646
5773 5770 5767 5765 5762 5759 5755 5752 5749 5746 5743 5740 5736 5735 5732 5729 5722 5717 5714 5718 5717 5713 5710 5706 5701 5693 5688 5685 5683 5681 5677 5673 5670 5667 5664 5661 5658 5654 5651 5648 5646 5644 5641
5766 5763 5760 5758 5757 5755 5750 5746 5744 5741 5737 5734 5732 5730 5729 5725 5720 5714 5710 5708 5709 5708 5706 5703 5697 5688 5683 5678 5676 5672 5668 5665 5665 5663 5659 5656 5653 5651 5647 5643 5639 5636 5633
5758 5755 5753 5752 5750 5748 5744 5740 5738 5736 5735 5733 5730 5728 5726 5723 5716 5710 5705 5702 5699 5700 5699 5694 5688 5682 5677 5673 5668 5664 5661 5662 5661 5657 5654 5651 5648 5645 5640 5636 5632 5628 5625
5750 5747 5745 5743 5742 5740 5738 5737 5735 5733 5732 5730 5727 5725 5722 5719 5716 5710 5704 5698 5692 5691 5690 5684 5679 5675 5672 5668 5664 5660 5658 5658 5656 5652 5649 5646 5642 5638 5635 5632 5629 5625 5622
5740 5739 5737 5737 5736 5733 5732 5732 5730 5730 5729 5725 5724 5723 5719 5715 5712 5707 5704 5699 5695 5690 5684 5680 5677 5673 5670 5667 5664 5660 5656 5652 5648 5646 5643 5639 5635 5632 5629 5626 5622 5620 5616
5729 5730 5731 5731 5729 5728 5726 5724 5720 5720 5717 5715 5714 5713 5712 5707 5701 5696 5692 5688 5683 5678 5675 5676 5674 5671 5667 5664 5660 5655 5651 5647 5643 5640 5636 5632 5629 5626 5623 5620 5616 5613 5610
5721 5721 5723 5723 5723 5721 5720 5717 5714 5709 5706 5704 5703 5701 5698 5695 5691 5687 5682 5677 5673 5668 5670 5672 5670 5667 5663 5659 5656 5651 5646 5642 5637 5634 5630 5626 5623 5620 5617 5613 5611 5608 5605
5714 5713 5713 5715 5715 5715 5713 5711 5709 5706 5703 5700 5695 5690 5687 5684 5681 5677 5672 5668 5668 5665 5668 5668 5666 5663 5658 5654 5649 5645 5640 5635 5631 5627 5623 5620 5617 5614 5612 5608 5605 5602 5599
5706 5706 5705 5706 5707 5706 5705 5703 5702 5699 5698 5695 5692 5685 5678 5675 5670 5667 5664 5667 5669 5666 5664 5662 5660 5656 5652 5647 5643 5638 5633 5629 5624 5621 5618 5614 5612 5609 5607 5604 5601 5594 5591
5697 5696 5694 5695 5697 5696 5696 5695 5694 5692 5690 5688 5686 5683 5675 5670 5668 5663 5661 5664 5664 5662 5659 5656 5652 5649 5645 5640 5635 5631 5627 5623 5619 5615 5613 5610 5606 5604 5601 5598 5595 5592 5588
5689 5688 5685 5686 5688 5688 5688 5687 5686 5684 5683 5681 5679 5676 5668 5666 5665 5662 5660 5659 5659 5657 5653 5649 5645 5642 5637 5632 5628 5625 5621 5618 5614 5610 5607 5604 5601 5598 5595 5593 5589 5587 5584
5680 5680 5680 5680 5680 5680 5680 5679 5679 5677 5675 5673 5670 5667 5659 5659 5659 5659 5656 5653 5651 5649 5647 5643 5639 5635 5631 5626 5622 5619 5616 5612 5608 5605 5601 5598 5595 5593 5590 5588 5585 5582 5580
5671 5671 5672 5672 5672 5670 5670 5671 5671 5669 5668 5666 5663 5660 5654 5653 5652 5651 5649 5647 5644 5642 5639 5635 5632 5628 5624 5620 5616 5612 5609 5606 5603 5599 5595 5593 5590 5587 5585 5582 5579 5577 5575
5663 5663 5663 5664 5663 5663 5662 5662 5662 5661 5660 5658 5656 5653 5650 5647 5645 5644 5642 5640 5637 5634 5630 5627 5623 5620 5616 5613 5610 5606 5602 5599 5595 5593 5589 5587 5584 5582 5579 5576 5574 5572 5570
5656 5655 5655 5656 5655 5656 5655 5654 5654 5653 5652 5650 5648 5647 5645 5642 5639 5637 5635 5633 5629 5626 5623 5619 5615 5612 5608 5605 5602 5599 5594 5590 5587 5585 5582 5580 5578 5575 5573 5571 5569 5566 5565
5649 5649 5648 5648 5648 5649 5648 5647 5647 5646 5644 5642 5640 5639 5636 5634 5632 5630 5628 5625 5622 5619 5615 5611 5608 5605 5602 5599 5596 5591 5586 5583 5579 5576 5574 5573 5572 5570 5567 5566 5563 5562 5559